Temperature
21 20 19 20 25 28 28 28 28 28 27 26 26 26 26 26 25 24 21 20 20 20 19 19 19 19 19 19 19 19 19 19 19 19 19 19 19 19 19 19 19 19 19 19 19 18 18 18 18
20 20 20 23 28 28 27 28 28 27 27 26 26 26 26 25 23 22 21 20 20 19 19 19 19 19 19 19 19 19 19 19 19 19 19 19 19 19 19 18 18 18 18 19 18 18 18 18 18
20 20 23 28 28 28 27 28 28 27 26 26 26 25 25 24 22 21 20 20 20 19 19 19 19 19 19 19 19 19 19 19 19 19 19 19 19 18 18 18 18 18 18 18 18 18 18 18 18
20 22 25 29 28 28 28 28 28 28 27 26 26 25 23 22 21 21 20 20 20 19 19 19 19 19 19 19 19 19 19 19 19 19 19 18 18 18 18 18 18 18 18 18 18 18 18 18 18
21 25 29 29 29 29 29 28 27 28 27 26 26 25 23 21 21 20 20 20 20 20 19 19 19 19 19 19 19 18 18 18 18 18 18 18 18 18 18 18 18 18 18 18 18 18 18 18 18
25 29 29 29 28 29 29 28 28 28 27 26 26 25 23 21 21 20 20 20 20 20 19 19 19 19 19 19 19 19 19 18 18 18 18 18 18 18 18 18 18 18 18 18 18 18 18 18 18
27 29 29 29 29 28 29 28 28 28 27 26 26 26 23 22 21 20 20 20 20 20 19 19 19 19 19 19 19 19 19 18 18 18 18 18 18 18 18 18 18 18 18 18 18 18 18 18 18
26 30 30 30 29 29 29 28 27 27 27 25 25 26 24 22 21 20 20 20 20 20 19 19 19 19 19 19 19 19 19 18 18 18 18 18 18 18 18 18 18 18 18 18 18 18 18 18 18
26 30 29 30 29 29 29 28 27 26 26 25 25 24 23 21 21 21 21 20 20 19 19 19 19 19 19 19 18 18 18 18 18 18 18 18 18 18 18 18 18 18 18 18 18 18 18 18 18
28 30 29 30 30 30 29 28 28 27 27 26 24 23 22 22 21 21 21 21 20 20 19 19 19 19 19 18 18 18 18 18 18 18 18 18 18 18 18 18 18 18 18 18 18 18 18 18 18
29 29 30 30 29 29 29 28 28 28 28 27 25 23 22 22 22 22 21 21 20 20 19 19 19 19 19 19 18 18 18 18 18 18 18 18 18 18 18 18 18 18 18 18 18 18 18 18 18
29 30 29 29 29 29 29 28 28 28 27 26 25 23 23 22 22 22 21 21 20 19 19 19 19 19 19 19 19 18 18 18 18 18 18 18 18 18 18 18 18 18 18 18 18 18 18 17 17
30 30 29 29 29 29 28 28 28 27 26 25 24 23 23 23 22 22 21 20 20 19 19 19 19 19 19 19 19 18 18 18 18 18 18 18 18 18 18 18 18 18 18 18 18 18 17 17 17
29 29 29 29 29 29 29 28 28 26 25 25 24 23 23 23 22 21 21 20 20 19 19 19 19 19 19 19 18 18 18 18 18 18 18 18 18 18 18 18 18 18 18 18 18 17 17 18 18
29 30 30 30 29 29 29 29 28 26 25 25 24 23 23 22 22 21 21 20 20 19 19 19 19 19 19 18 18 18 18 18 18 18 18 18 18 18 18 18 18 18 18 18 18 17 17 18 18
31 31 30 30 30 29 29 29 28 26 26 25 25 23 23 22 22 21 21 20 20 19 19 19 19 19 19 19 19 18 18 18 18 18 18 18 18 18 18 18 18 18 18 18 18 18 18 18 18
31 30 30 30 30 30 30 29 28 26 26 26 25 24 23 23 22 21 21 20 20 19 19 19 19 19 19 19 18 18 18 18 18 18 18 18 18 18 18 18 18 18 18 18 18 18 18 18 18
30 30 30 30 30 30 30 29 29 27 26 26 25 25 24 23 22 22 21 20 20 19 19 19 19 19 19 18 18 18 18 18 18 18 18 18 18 18 18 18 18 18 18 18 18 18 17 17 17
30 30 30 30 30 30 30 29 29 28 27 27 26 25 24 24 23 22 21 20 20 19 19 19 19 19 19 18 18 18 18 18 18 18 18 18 18 18 18 18 18 18 18 18 18 18 17 18 17
30 30 30 30 30 30 30 29 30 29 28 27 26 25 25 24 23 22 21 20 20 19 19 19 19 19 19 19 19 18 18 18 18 18 18 18 18 18 18 18 18 18 18 17 18 17 17 17 17
30 30 30 30 30 30 30 30 30 29 28 27 26 26 25 24 24 22 21 21 20 20 19 19 19 19 19 19 18 18 18 18 18 17 18 18 18 18 18 18 18 18 18 17 17 17 17 17 17
30 30 30 29 29 30 30 30 30 30 29 28 27 26 25 25 24 23 22 21 21 20 19 19 19 19 19 19 18 18 18 18 17 17 17 17 17 17 18 18 18 17 17 17 17 17 17 17 17
30 30 30 30 30 30 30 30 31 30 29 29 28 27 26 25 24 23 22 21 21 20 20 19 19 19 19 18 18 18 18 18 18 17 17 17 17 17 17 17 17 17 17 17 17 17 17 17 17
30 30 30 30 31 29 30 30 30 30 29 29 28 27 26 25 24 23 22 21 21 20 20 19 19 19 19 19 18 18 18 18 17 17 17 17 17 17 17 17 17 17 17 17 17 17 17 17 17
30 30 30 29 30 30 30 30 30 30 30 29 28 27 25 25 24 23 22 21 21 20 20 20 19 19 19 19 18 18 18 18 17 17 17 17 17 17 17 17 17 17 17 16 16 16 16 16 16
31 31 29 29 29 30 30 30 30 30 29 28 27 27 25 24 24 23 22 22 21 21 20 19 19 19 19 19 19 18 18 18 18 17 17 17 17 17 17 16 17 17 16 16 16 16 16 16 16
31 31 31 30 30 30 30 30 30 29 29 28 27 26 26 25 24 23 23 22 21 21 20 20 19 19 19 19 19 18 18 18 17 17 17 17 17 17 16 16 16 16 16 16 16 16 16 16 16
31 31 30 30 29 29 30 30 30 28 28 28 28 27 26 25 24 23 23 22 22 21 20 20 19 19 19 19 19 18 18 18 18 17 17 17 17 17 16 16 16 16 16 16 16 15 15 15 15
30 30 30 30 30 29 29 30 30 28 28 28 28 26 25 25 24 23 23 22 21 21 20 20 19 19 19 18 18 18 18 18 17 17 17 17 17 16 16 16 16 16 16 15 15 15 15 15 15
31 31 30 29 29 29 29 29 29 29 29 28 27 26 25 24 24 23 22 22 21 21 20 20 19 19 19 18 18 18 18 17 17 17 17 17 16 16 16 16 16 16 15 15 15 15 15 15 15
Wind_Speed
11 9 5 4 3 3 10 9 9 8 8 8 8 7 8 9 8 6 5 5 5 5 6 7 6 5 5 6 6 5 6 6 5 5 5 5 5 5 7 6 7 7 7 8 8 8 8 9 10
8 5 4 4 2 7 10 9 10 9 7 6 7 7 8 10 8 6 5 5 5 5 6 6 6 5 5 6 5 5 5 5 5 5 5 6 6 7 8 7 7 7 7 7 7 7 7 8 8
6 5 4 1 6 9 9 9 9 8 6 5 6 7 7 7 6 5 5 5 5 5 5 8 6 5 6 6 5 5 5 6 6 5 6 7 7 7 7 7 7 7 7 7 7 7 7 7 8
4 4 4 2 10 10 8 7 6 7 7 6 5 7 7 7 4 6 7 5 6 6 5 8 6 5 6 6 5 5 5 6 6 6 6 7 7 7 6 6 7 6 5 5 5 5 6 6 7
4 3 1 7 10 9 8 6 5 6 6 7 7 8 8 7 8 8 7 6 6 6 6 8 7 6 6 5 4 4 5 5 6 6 6 6 6 6 6 5 5 5 5 4 4 4 5 5 6
3 2 3 8 10 8 7 5 5 7 7 6 6 8 7 6 7 7 7 6 6 6 6 7 8 6 6 5 5 5 5 5 6 6 5 6 6 6 5 4 4 4 4 4 3 3 4 5 5
3 2 6 8 8 8 6 5 5 6 6 6 4 6 7 7 7 7 6 6 5 5 5 4 5 6 7 6 5 4 4 4 5 5 5 4 5 4 3 3 3 3 3 3 3 2 3 3 4
3 1 6 7 8 8 6 5 5 5 6 5 3 5 6 7 7 7 6 6 5 5 5 4 4 4 3 5 5 4 3 3 3 4 3 3 4 4 3 3 3 2 2 3 2 1 2 2 3
2 1 6 7 7 7 5 5 5 5 7 6 6 7 8 9 8 6 6 5 5 4 3 4 4 4 3 3 4 4 4 3 3 3 3 2 2 2 3 4 3 2 2 2 2 1 2 3 5
2 4 8 6 5 6 6 5 5 5 6 6 8 9 10 9 8 6 5 5 4 3 3 4 3 3 2 2 3 2 2 3 2 2 2 2 1 1 1 4 3 1 1 2 2 3 5 6 4
2 5 6 6 5 5 5 5 4 3 5 5 6 9 9 8 7 5 5 4 4 3 3 3 4 2 2 2 2 2 2 2 2 2 1 1 0 1 1 1 2 2 3 2 2 3 1 1 0
3 5 4 4 4 4 5 5 5 5 6 6 7 9 9 7 6 4 4 4 4 3 3 3 3 3 2 2 2 2 2 2 2 2 1 1 1 1 1 1 1 0 0 0 0 0 1 1 0
4 4 5 5 5 5 5 5 5 7 6 7 8 8 8 6 6 4 4 4 4 3 3 3 2 2 2 1 1 2 2 2 3 2 2 1 1 1 1 1 1 1 0 0 0 1 1 1 1
3 3 4 5 5 4 5 5 5 6 6 8 8 7 7 6 5 4 4 3 3 2 3 3 2 3 1 1 1 1 2 2 2 2 2 2 1 1 1 1 1 1 1 1 1 1 0 1 1
2 2 4 4 3 2 2 4 4 6 7 7 7 6 6 5 4 4 3 3 3 2 2 2 2 2 2 1 1 1 1 2 2 2 2 2 2 2 2 1 1 1 1 1 0 0 0 0 0
3 3 3 4 2 2 2 4 5 6 6 6 7 6 5 4 4 4 3 2 2 3 3 2 1 2 2 2 1 1 2 2 1 2 2 2 3 3 2 2 2 2 2 1 0 0 0 0 1
2 1 2 3 2 1 2 2 5 5 6 6 6 6 5 5 4 4 3 3 3 3 2 2 2 2 1 2 1 1 1 1 1 2 2 3 3 3 2 2 2 2 1 1 1 1 1 1 1
1 1 1 1 2 2 2 0 4 5 6 6 6 6 6 5 5 5 4 4 3 3 3 2 2 2 1 1 1 0 1 1 1 2 2 2 2 3 3 1 2 3 1 1 2 2 2 2 2
2 2 1 1 0 2 3 2 2 4 6 7 6 6 6 6 5 5 5 5 4 3 3 2 2 2 1 0 0 0 1 1 1 1 2 2 3 3 2 3 2 2 2 2 2 1 1 1 1
3 3 2 1 1 3 3 4 3 4 6 7 7 7 7 7 6 6 5 5 5 4 3 3 3 2 1 0 0 1 1 1 1 2 2 2 2 3 2 3 3 2 1 1 2 1 2 1 1
4 4 3 2 3 5 5 4 4 4 5 6 7 7 7 7 7 7 6 6 5 5 4 3 2 2 1 0 1 0 0 0 1 1 1 2 2 2 3 2 3 3 2 2 2 2 2 2 1
4 2 3 4 5 3 4 4 2 4 5 5 6 7 7 7 7 7 7 7 6 5 5 4 3 2 1 1 1 1 1 1 2 1 2 2 2 2 2 2 2 3 2 2 2 2 2 3 2
2 1 3 5 6 6 5 5 1 4 3 3 4 5 6 6 6 7 7 7 6 6 5 5 4 3 2 2 1 2 1 1 1 2 2 2 2 2 3 2 2 2 2 2 3 2 3 3 3
3 4 5 6 7 5 3 5 1 1 1 1 2 3 4 4 5 6 6 6 6 6 6 6 5 4 3 3 2 1 1 1 2 2 2 1 1 2 3 2 2 2 2 2 2 2 2 3 3
6 6 5 5 4 2 0 4 1 3 1 1 2 2 3 4 5 5 6 7 7 7 7 6 6 5 4 4 3 3 2 1 1 2 1 2 2 1 2 3 3 3 2 2 2 2 3 2 3
6 7 6 5 5 3 3 3 2 3 2 1 1 2 3 3 4 4 5 6 7 7 7 6 6 5 4 4 4 3 3 2 1 1 2 2 2 2 2 2 2 3 3 3 2 2 2 2 2
5 6 6 8 8 7 3 1 1 2 2 2 2 2 3 3 4 4 4 5 6 7 7 7 6 6 5 5 4 3 3 2 2 1 2 2 2 2 2 2 2 2 3 3 3 2 2 2 3
5 4 5 7 6 7 5 4 1 2 1 1 1 1 2 3 4 4 4 4 5 6 7 7 6 6 5 5 4 3 3 3 2 2 1 2 2 2 2 2 2 2 2 3 3 3 2 3 3
6 6 6 6 7 8 7 3 2 1 2 1 1 1 2 3 4 4 4 4 5 5 6 7 6 6 5 4 3 3 3 2 2 2 2 1 2 2 2 2 2 3 3 3 3 4 3 4 3
7 7 8 7 6 7 8 3 3 1 1 1 0 1 1 2 3 3 4 4 4 5 5 6 6 6 5 4 4 4 3 3 2 2 2 2 2 2 2 2 3 3 3 3 4 5 4 4 4
Wind_Direction
176 180 205 238 235 85 65 63 61 61 61 57 58 57 59 49 41 67 80 82 85 92 98 110 100 97 97 107 105 105 109 112 114 119 125 129 134 132 127 128 130 135 143 149 154 156 162 167 168
171 182 230 244 350 71 68 62 64 61 76 82 77 72 70 65 58 81 92 85 95 94 98 96 100 101 102 106 108 106 106 108 110 112 116 122 128 122 118 119 122 131 142 149 151 156 163 167 170
180 221 261 281 49 55 68 65 71 80 81 74 78 64 59 62 65 76 87 105 103 93 94 92 99 102 104 103 105 108 107 105 105 104 101 110 117 117 119 122 122 128 139 147 152 158 163 165 165
213 229 235 58 66 60 66 75 82 94 82 70 80 80 75 56 58 88 106 109 100 94 92 93 94 96 99 95 94 106 103 100 100 101 100 102 107 108 112 114 117 123 132 140 151 157 163 169 173
239 257 137 76 68 67 70 80 84 77 72 74 77 85 83 71 85 102 110 106 93 88 87 93 95 97 97 91 90 102 100 99 99 97 98 101 104 104 103 101 111 120 128 134 142 156 171 174 181
250 254 64 72 75 76 80 90 86 77 80 82 85 90 85 95 98 103 102 93 85 81 85 97 112 109 106 96 91 94 88 93 100 101 102 97 94 93 93 94 105 108 121 135 149 172 184 188 194
305 28 65 73 77 76 74 79 70 78 78 70 72 85 101 103 103 108 103 93 85 82 82 85 111 126 135 115 97 100 96 94 98 98 100 103 104 102 102 104 104 99 107 139 165 179 194 199 203
308 336 79 72 73 73 83 90 74 73 79 80 65 71 96 115 118 116 109 98 85 76 76 78 83 91 115 119 114 113 99 97 117 107 99 119 142 149 154 152 112 93 89 111 139 158 188 201 210
268 49 65 57 60 74 96 103 94 93 99 90 72 71 97 122 126 122 114 104 91 77 69 72 76 84 88 97 117 141 141 134 158 137 134 168 146 141 153 94 96 93 92 116 129 166 185 206 203
284 54 60 50 51 73 95 93 105 118 109 104 100 98 114 128 132 126 112 103 97 81 71 74 73 75 83 90 107 104 108 109 108 76 93 117 118 137 97 116 124 137 146 168 169 204 210 226 201
40 53 60 64 61 70 91 93 100 99 87 93 118 126 133 132 130 123 108 97 93 85 69 73 79 68 61 78 89 85 85 91 104 91 98 109 136 148 110 135 144 171 192 194 171 214 229 219 242
79 64 59 67 74 80 82 90 86 64 64 87 114 129 135 136 132 118 108 103 96 82 75 67 71 70 52 41 68 86 94 86 80 89 54 75 67 30 45 38 8 275 134 49 322 23 52 352 263
90 76 71 82 98 88 91 85 83 81 90 108 119 129 134 135 129 117 103 97 92 91 84 84 73 75 81 69 7 68 68 61 85 76 69 25 20 12 31 9 338 331 332 238 173 20 45 340 282
69 86 94 98 103 99 94 97 100 99 119 123 130 135 137 132 125 118 114 111 105 94 89 88 89 93 79 86 82 55 65 71 57 66 55 15 13 9 341 336 339 342 354 355 318 346 311 295 323
147 139 124 109 109 106 136 99 96 124 137 138 141 140 141 138 137 136 129 127 116 113 98 91 98 104 103 88 91 91 62 77 67 68 57 21 18 12 346 355 329 4 356 339 314 323 253 246 266
201 189 126 112 119 128 252 80 107 144 155 153 152 152 159 155 156 153 142 134 120 111 110 106 94 102 108 85 56 63 45 58 62 57 50 30 17 6 346 349 6 353 331 342 355 283 325 351 324
191 131 96 122 142 164 242 75 121 158 173 171 168 167 175 170 172 166 160 151 134 127 130 123 98 89 93 99 112 99 85 58 47 48 31 30 17 8 346 354 6 330 347 343 335 31 326 329 321
12 7 85 105 140 214 236 123 145 174 190 190 181 181 186 189 186 176 172 158 147 143 142 137 134 115 119 128 144 145 78 78 62 63 48 27 13 8 341 344 358 331 357 4 5 352 347 323 308
304 306 307 13 175 254 255 261 221 193 202 203 196 191 195 198 188 178 174 168 165 159 160 166 157 144 185 189 283 270 95 57 56 57 46 25 10 10 351 350 359 336 6 353 346 329 345 344 328
257 259 256 195 208 270 273 266 236 206 213 215 210 206 205 200 194 186 178 178 179 172 175 181 181 171 200 129 319 294 347 16 50 11 36 14 12 358 358 359 345 355 340 356 351 324 326 339 337
256 266 278 278 250 238 265 238 210 195 208 212 217 218 216 210 205 194 185 186 183 182 184 188 182 164 170 221 222 79 154 287 55 30 27 14 10 13 1 359 346 345 331 353 331 319 310 314 315
261 285 267 253 262 263 270 288 189 188 197 207 216 215 214 212 209 200 188 187 188 187 180 183 184 183 174 206 233 257 322 357 12 359 20 13 9 0 2 354 343 330 338 350 315 349 310 302 304
289 263 245 252 265 273 250 278 178 163 211 219 214 212 215 213 204 197 195 188 190 185 181 181 179 176 175 195 223 253 298 340 356 5 16 355 18 359 358 359 347 337 334 342 333 336 315 302 301
191 210 224 238 252 263 281 280 294 112 280 243 201 201 201 201 197 197 192 186 187 184 183 184 174 175 176 177 182 216 286 318 341 351 348 340 13 15 12 2 350 336 340 334 321 315 308 317 317
227 253 256 247 244 274 341 274 354 44 28 258 206 180 178 186 191 190 187 189 190 191 188 185 175 179 177 177 187 201 223 233 265 296 322 321 341 8 9 359 348 336 330 318 313 306 316 314 306
241 265 281 296 304 306 239 270 59 50 65 94 137 146 158 176 184 184 188 188 190 192 187 186 184 189 188 188 195 205 216 230 232 254 298 310 323 349 358 345 343 339 326 323 320 311 310 307 293
244 254 283 281 278 281 277 229 179 125 113 106 119 129 146 161 166 172 176 180 183 186 185 187 188 190 196 198 195 196 208 236 259 261 263 290 307 311 336 329 332 339 342 330 310 321 319 311 293
265 270 260 270 286 285 277 256 253 188 187 152 134 129 140 153 153 149 158 169 173 177 177 182 185 190 195 198 202 191 201 215 228 250 289 301 305 314 307 309 315 323 326 324 315 308 316 298 297
215 231 250 270 281 287 293 305 55 165 213 203 180 141 151 164 159 150 148 154 163 171 176 181 184 190 193 195 195 203 205 209 213 222 236 250 275 288 290 295 302 306 309 310 305 305 307 294 292
248 250 248 262 272 272 286 302 94 125 164 167 155 120 125 155 159 154 149 149 161 173 181 185 191 194 194 191 194 199 206 209 212 214 229 241 255 264 275 288 292 293 300 301 297 297 297 292 293
Height
1510 1510 1511 1513 1507 1501 1504 1502 1499 1501 1503 1507 1507 1506 1507 1508 1510 1519 1521 1518 1518 1518 1517 1516 1515 1515 1514 1514 1514 1514 1514 1514 1514 1514 1513 1512 1512 1511 1510 1510 1510 1511 1513 1516 1519 1521 1523 1524 1525
1512 1512 1513 1511 1502 1506 1509 1502 1503 1505 1508 1509 1509 1509 1509 1513 1516 1519 1520 1520 1520 1520 1519 1517 1516 1516 1516 1515 1515 1515 1515 1515 1515 1514 1513 1511 1512 1512 1512 1513 1513 1514 1516 1518 1520 1521 1523 1524 1524
1512 1513 1514 1504 1502 1507 1509 1504 1506 1508 1510 1509 1510 1512 1514 1517 1520 1520 1521 1521 1521 1521 1520 1518 1517 1517 1517 1517 1517 1516 1516 1516 1516 1515 1514 1513 1514 1514 1515 1516 1516 1517 1518 1520 1521 1522 1523 1524 1525
1514 1515 1511 1503 1505 1504 1504 1506 1507 1508 1510 1511 1511 1514 1518 1521 1522 1522 1522 1522 1522 1522 1522 1520 1519 1519 1518 1518 1518 1517 1517 1517 1517 1517 1516 1516 1516 1517 1517 1518 1518 1519 1520 1521 1522 1523 1523 1524 1525
1515 1512 1502 1503 1505 1504 1505 1508 1508 1508 1510 1512 1513 1515 1520 1523 1523 1523 1523 1524 1524 1524 1523 1522 1520 1520 1519 1519 1519 1518 1518 1518 1518 1518 1518 1518 1519 1519 1519 1520 1520 1521 1521 1522 1522 1523 1523 1524 1525
1514 1505 1503 1508 1507 1506 1507 1509 1509 1510 1512 1514 1515 1516 1522 1524 1524 1525 1525 1525 1525 1525 1524 1523 1522 1521 1521 1521 1520 1519 1519 1520 1520 1520 1520 1520 1521 1521 1521 1521 1522 1522 1522 1522 1523 1523 1524 1524 1524
1512 1503 1505 1505 1507 1508 1509 1511 1510 1511 1513 1516 1517 1517 1522 1525 1526 1526 1526 1526 1526 1526 1525 1525 1525 1523 1522 1522 1522 1522 1521 1521 1521 1522 1522 1522 1522 1522 1523 1523 1523 1523 1523 1523 1523 1523 1523 1523 1523
1513 1505 1503 1503 1506 1509 1510 1512 1513 1513 1516 1519 1519 1518 1522 1526 1526 1527 1527 1527 1527 1527 1527 1526 1526 1525 1525 1524 1523 1523 1523 1522 1523 1523 1523 1523 1523 1523 1524 1524 1523 1523 1523 1523 1523 1523 1523 1523 1523
1513 1506 1507 1506 1507 1508 1510 1511 1515 1516 1517 1520 1521 1522 1524 1526 1527 1528 1528 1529 1528 1528 1528 1528 1527 1526 1526 1526 1525 1524 1524 1524 1524 1524 1524 1524 1525 1525 1525 1524 1524 1524 1523 1523 1523 1522 1522 1522 1522
1511 1507 1508 1507 1507 1507 1510 1512 1514 1515 1517 1520 1522 1524 1525 1526 1527 1529 1529 1529 1529 1529 1529 1528 1528 1527 1527 1527 1526 1526 1526 1525 1525 1525 1525 1525 1525 1525 1526 1525 1524 1524 1524 1523 1523 1522 1522 1522 1522
1510 1509 1508 1509 1510 1510 1511 1513 1514 1513 1515 1519 1522 1525 1526 1527 1528 1529 1530 1530 1530 1530 1530 1529 1528 1528 1528 1527 1527 1527 1527 1526 1526 1526 1526 1526 1526 1526 1526 1526 1526 1525 1524 1524 1523 1523 1523 1522 1521
1511 1511 1511 1511 1513 1512 1512 1514 1515 1516 1519 1521 1523 1525 1527 1528 1529 1530 1530 1531 1531 1531 1530 1530 1529 1528 1527 1527 1528 1527 1528 1527 1527 1527 1527 1527 1527 1526 1526 1526 1526 1525 1525 1524 1523 1522 1522 1521 1521
1511 1512 1513 1513 1514 1514 1514 1515 1517 1519 1522 1523 1525 1526 1527 1528 1530 1531 1531 1532 1531 1531 1531 1530 1529 1529 1528 1527 1528 1529 1528 1529 1528 1527 1527 1527 1527 1527 1527 1525 1525 1525 1524 1524 1523 1522 1521 1520 1520
1513 1513 1513 1513 1514 1515 1514 1516 1518 1521 1523 1524 1526 1527 1529 1530 1531 1531 1532 1532 1532 1531 1531 1531 1530 1529 1528 1528 1528 1528 1529 1528 1529 1528 1528 1527 1527 1526 1526 1525 1525 1525 1524 1523 1522 1521 1520 1520 1520
1514 1511 1511 1512 1513 1515 1514 1515 1517 1521 1523 1525 1526 1528 1529 1530 1531 1532 1532 1532 1532 1532 1531 1531 1531 1530 1529 1529 1529 1529 1530 1530 1529 1529 1528 1527 1527 1527 1526 1526 1525 1524 1524 1522 1522 1521 1521 1520 1520
1510 1509 1512 1511 1512 1514 1515 1517 1517 1521 1522 1524 1526 1528 1529 1530 1531 1532 1532 1532 1532 1532 1531 1531 1531 1530 1530 1529 1529 1530 1530 1530 1530 1529 1529 1528 1527 1527 1526 1526 1525 1524 1524 1523 1522 1521 1521 1520 1519
1509 1512 1513 1512 1511 1512 1512 1514 1517 1520 1521 1523 1525 1527 1528 1530 1531 1532 1532 1532 1532 1531 1531 1531 1531 1530 1530 1530 1530 1530 1529 1529 1530 1529 1529 1528 1527 1527 1526 1526 1525 1524 1524 1523 1522 1521 1521 1520 1519
1515 1512 1512 1512 1509 1511 1511 1511 1514 1518 1520 1521 1523 1525 1527 1528 1530 1531 1531 1531 1531 1531 1531 1531 1530 1530 1530 1530 1530 1530 1530 1530 1530 1529 1528 1528 1528 1527 1526 1526 1524 1524 1523 1522 1521 1520 1520 1520 1519
1510 1512 1513 1511 1509 1510 1511 1511 1511 1515 1517 1519 1520 1523 1524 1526 1528 1529 1530 1530 1531 1531 1530 1531 1530 1530 1530 1530 1531 1531 1531 1530 1530 1530 1529 1528 1527 1527 1526 1526 1524 1524 1523 1522 1521 1520 1520 1519 1519
1510 1513 1513 1511 1509 1510 1510 1509 1508 1511 1514 1516 1518 1520 1522 1524 1526 1528 1529 1529 1530 1530 1530 1530 1530 1530 1530 1530 1530 1530 1531 1531 1530 1530 1529 1528 1527 1526 1526 1525 1524 1523 1522 1521 1520 1520 1520 1519 1519
1509 1510 1511 1512 1509 1507 1509 1509 1506 1508 1511 1514 1516 1518 1520 1522 1523 1525 1527 1527 1528 1529 1529 1530 1530 1530 1530 1530 1530 1530 1530 1530 1530 1530 1529 1528 1527 1526 1526 1525 1524 1523 1523 1522 1520 1519 1519 1519 1519
1511 1506 1508 1510 1512 1509 1509 1514 1505 1503 1507 1510 1513 1515 1517 1519 1521 1523 1524 1525 1526 1528 1528 1528 1529 1529 1529 1530 1530 1530 1530 1531 1530 1530 1529 1528 1527 1526 1525 1524 1523 1522 1523 1521 1521 1520 1519 1519 1519
1507 1506 1507 1508 1508 1508 1505 1510 1503 1501 1505 1506 1509 1511 1514 1516 1518 1520 1522 1523 1525 1526 1527 1527 1527 1528 1528 1529 1529 1530 1530 1530 1530 1529 1528 1528 1527 1526 1525 1524 1523 1522 1522 1521 1520 1519 1518 1518 1518
1506 1507 1506 1505 1504 1516 1507 1510 1507 1500 1503 1504 1506 1509 1512 1514 1516 1518 1520 1521 1523 1524 1525 1526 1526 1526 1527 1527 1528 1529 1529 1529 1529 1529 1528 1528 1527 1526 1525 1524 1523 1522 1521 1520 1519 1518 1518 1517 1516
1505 1508 1516 1518 1516 1513 1503 1507 1506 1499 1500 1502 1505 1508 1510 1512 1514 1516 1518 1519 1521 1523 1524 1525 1525 1525 1526 1526 1527 1527 1528 1528 1528 1528 1528 1527 1527 1526 1524 1524 1522 1521 1520 1519 1518 1517 1517 1516 1515
1502 1504 1518 1527 1522 1509 1504 1506 1501 1498 1501 1503 1505 1507 1509 1511 1512 1514 1516 1518 1519 1521 1522 1523 1524 1524 1525 1525 1525 1526 1526 1527 1527 1526 1527 1526 1526 1525 1523 1522 1521 1520 1519 1519 1517 1517 1516 1514 1514
1501 1501 1497 1506 1508 1511 1504 1501 1498 1498 1500 1502 1504 1506 1508 1510 1511 1513 1514 1516 1517 1518 1520 1521 1522 1523 1524 1524 1524 1525 1525 1525 1526 1525 1525 1525 1524 1524 1522 1522 1521 1520 1518 1517 1516 1516 1514 1513 1513
1498 1497 1501 1505 1520 1519 1508 1504 1501 1501 1501 1502 1504 1505 1507 1509 1510 1512 1513 1514 1516 1517 1518 1519 1520 1521 1522 1523 1523 1524 1524 1524 1524 1524 1524 1523 1523 1522 1521 1520 1519 1518 1517 1516 1515 1515 1513 1512 1511
1501 1501 1502 1500 1502 1515 1517 1507 1493 1497 1499 1501 1503 1505 1507 1508 1509 1511 1512 1514 1515 1516 1517 1518 1519 1520 1521 1522 1522 1523 1523 1523 1523 1523 1522 1522 1521 1520 1519 1519 1518 1517 1516 1515 1514 1513 1511 1510 1510
1494 1494 1497 1507 1508 1504 1507 1505 1493 1495 1497 1500 1502 1505 1507 1508 1509 1510 1512 1513 1514 1515 1516 1517 1518 1519 1520 1520 1521 1521 1522 1522 1522 1521 1521 1520 1519 1518 1517 1517 1516 1515 1514 1513 1512 1511 1510 1509 1508